User: anonymous   Login
Location: Unspecified
(0.0000°N, 0.0000°E)
Time: 01:43:27
(UTC+00:00)
Language:

APRIZESAT 5 - Orbit

View from above orbital plane
View from above orbital plane
View from above satellite
View from above satellite

Ground track
Ground track

The orbit data is extracted from the following two-line orbital elements,

1 37792U 11044E   17349.48294169  .00000103  00000-0  23213-4 0  9994
2 37792  98.3612 138.2899 0058147 193.0986 166.8715 14.75196259340594
Epoch (UTC): 15 December 2017 11:35:26
Eccentricity: 0.0058147
inclination: 98.3612°
perigee height: 603 km
apogee height: 685 km
right ascension of ascending node: 138.2899°
argument of perigee: 193.0986°
revolutions per day: 14.75196259
mean anomaly at epoch: 166.8715°
orbit number at epoch: 34059

The dashed part of the orbit path shows where the satellite is in the earth's shadow,  

DLR